COSMOS 2162

Satellite information

Favourite Embed

Satellite Type and Status

PAYLOADIN ORBIT

Key statistics

Satellite COSMOS 2162 at a glance.

Uptime

12399

Days in orbit

Revolutions

≈ 12.6

Per day

Orbit

LEO

Low Earth Orbit

Inclination

82.6

Latest

Satellite identification and parameters

Extended collection of information and parameters for COSMOS 2162.

Object identification

Identified? True

Debris? False

Object name: COSMOS 2162

International designator: 1991-068F

Object number (NORAD): 21733

Object ID (CCSDS): 21733

Country: COMMONWEALTH OF INDEPENDENT STATES (CIS)

Current information (Y/N): Y

RCS size: LARGE

Orbital parameters

Period: 114.066 minutes

Inclination: 82.5924 deg

SMA: 7791.067 km

Apoapsis: 1418.656 km

Periapsis: 1407.207 km

RAAN: 159.4433 deg

Eccentricy: 0.00073472

Argument of periapsis: 127.616 deg

Mean anomaly: 241.3747 deg

Mean motion: 12.62430251 rev/day

Mean motion (dot): 0.00000031 rev/day2

B* drag term: 0.00011589046 1/REarth

Two-line elements (TLE)

Creation date: Sept. 8, 2025, 3:16 a.m.

Reference frame: TEME

Reference center: EARTH

Epoch: Sept. 7, 2025, 11:24 p.m. UTC

TLE line 0: 0 COSMOS 2162

TLE line 1: 1 21733U 91068F 25250.97542501 .00000031 00000-0 11589-3 0 9998

TLE line 2: 2 21733 82.5924 159.4433 0007347 127.6160 241.3747 12.62430251564336

Live tracking on map

Real-time ground track for satellite COSMOS 2162.

In-orbit conjunctions

There are no conjunctions computed for COSMOS 2162, at the moment. Check back to stay up to date, as we update our databases every day.

Go to all conjunctions

Associated space launch

Second generation store-dump military communications satellite

COSMOS 2162 was lifted into orbit during the mission ‘Tsiklon-3 | Strela-3 67 to 72’, on board a Tsiklon-3 space rocket.

The launch took place on Sept. 28, 1991, 7:05 a.m. from 32/2.

For more information about the launch, click the button.

Launch to space Tsiklon-3 | Strela-3 67 to 72
Tsiklon-3 | Strela-3 67 to 72

Agency: N/A

Status: Launch Successful

Launch date: Sept. 28, 1991, 7:05 a.m. UTC

Rocket: Tsiklon-3

Launch pad: 32/2

Location: Plesetsk Cosmodrome, Russian Federation

...

Latest news about this satellite

There are no fresh news available about this satellite. Check back as we update our databases every day.


Newsletter sign-up

Weekly statistics, charts and insights to help you stay on top of the space industry.